Location: Fort Wayne
(41.1310°N, 85.1290°W)
Time: 19:01:20
(UTC-05:00)

OPAL - Pass Details

Date: 26 August 2017
Orbit: 744 x 795 km, 100.2° (Epoch: 19 November)

Event Time Altitude Azimuth Distance (km) Brightness Sun altitude
Rises 21:12:39 0° 215° (SW) 3,227 10.9 -9.8°
Reaches altitude 10° 21:16:37 10° 247° (WSW) 2,294 10.6 -10.5°
Maximum altitude 21:18:26 12° 268° (W) 2,164 10.9 -10.8°
Drops below altitude 10° 21:20:15 10° 290° (WNW) 2,289 11.5 -11.1°
Sets 21:24:12 0° 321° (NW) 3,210 12.0 -11.8°
